K3JAR-3 Weather Reports


time (UTC)temp
C
wind
direction
speed
KPH
gust
KPH
rain 1hr
cm
rain 24hr
cm
rain mn
cm
humidity
%
barometer
mb
20260506041016 20 319 9.7 16.1 0.00 0.00 0.00 76 1010.8
20260506040021 20 316 8.0 12.9 0.00 0.00 0.00 75 1010.5
20260506035019 20 342 9.7 17.7 0.00 0.00 0.00 74 1010.5
20260506034017 21 337 11.3 19.3 0.00 0.00 0.00 73 1010.1
20260506033035 21 311 9.7 20.9 0.00 0.00 0.00 73 1010.0
20260506032019 21 345 8.0 14.5 0.00 0.00 0.00 72 1009.9
20260506031023 21 312 8.0 12.9 0.00 0.00 0.00 72 1009.8
20260506030027 22 331 9.7 20.9 0.00 0.00 0.00 72 1009.8
20260506025036 22 316 14.5 16.1 0.00 0.00 0.00 71 1009.5
20260506024017 22 293 14.5 20.9 0.00 0.00 0.00 71 1009.2
20260506023042 23 328 8.0 16.1 0.00 0.00 0.00 70 1008.9
20260506022025 23 3 9.7 16.1 0.00 0.00 0.00 70 1008.7
20260506021029 23 329 8.0 12.9 0.00 0.00 0.00 69 1008.3
20260506020016 23 329 9.7 16.1 0.00 0.00 0.00 69 1008.1
20260506015020 24 324 11.3 14.5 0.00 0.00 0.00 68 1007.8
20260506014023 25 326 9.7 12.9 0.00 0.00 0.00 67 1007.6
20260506013048 25 347 8.0 12.9 0.00 0.00 0.00 67 1007.5
20260506012058 25 349 8.0 12.9 0.00 0.00 0.00 66 1007.4
20260506011017 26 325 9.7 14.5 0.00 0.00 0.00 65 1007.5
20260506010022 26 342 8.0 11.3 0.00 0.00 0.00 64 1007.0
20260506005025 26 12 6.4 14.5 0.00 0.00 0.00 63 1007.2
20260506004030 27 320 8.0 11.3 0.00 0.00 0.00 63 1006.9
20260506003016 27 352 9.7 11.3 0.00 0.00 0.00 62 1006.9
20260506002045 28 356 6.4 9.7 0.00 0.00 0.00 63 1006.8
20260506001044 28 230 8.0 11.3 0.00 0.00 0.00 73 1006.6
20260506000028 28 211 8.0 11.3 0.00 0.00 0.00 74 1006.3
20260505235033 28 175 9.7 12.9 0.00 0.00 0.00 74 1006.1
20260505234019 28 166 8.0 11.3 0.00 0.00 0.00 73 1006.1
20260505233022 29 162 12.9 17.7 0.00 0.00 0.00 72 1005.8
20260505232026 30 173 12.9 19.3 0.00 0.00 0.00 71 1005.8
20260505231024 30 172 12.9 17.7 0.00 0.00 0.00 70 1005.9
20260505230016 30 171 12.9 19.3 0.00 0.00 0.00 68 1005.6
20260505225020 31 159 14.5 20.9 0.00 0.00 0.00 61 1005.6
20260505224018 31 179 11.3 16.1 0.00 0.00 0.00 61 1005.6
20260505223036 31 169 9.7 14.5 0.00 0.00 0.00 61 1005.4
20260505222032 31 159 9.7 14.5 0.00 0.00 0.00 61 1005.4
20260505221018 31 177 8.0 11.3 0.00 0.00 0.00 62 1005.4
20260505220022 31 170 8.0 12.9 0.00 0.00 0.00 60 1005.4
20260505215026 32 169 8.0 11.3 0.00 0.00 0.00 59 1005.4
20260505214030 32 163 8.0 9.7 0.00 0.00 0.00 57 1005.6
20260505213016 32 194 8.0 17.7 0.00 0.00 0.00 58 1005.6
20260505212019 32 219 6.4 11.3 0.00 0.00 0.00 57 1005.7
20260505211029 31 190 8.0 16.1 0.00 0.00 0.00 59 1005.9
20260505210028 31 194 14.5 19.3 0.00 0.00 0.00 59 1006.1
20260505205032 31 179 9.7 16.1 0.00 0.00 0.00 59 1005.9
20260505204018 30 179 9.7 14.5 0.00 0.00 0.00 63 1006.5
20260505203022 31 195 11.3 16.1 0.00 0.00 0.00 61 1006.5
20260505202047 31 199 11.3 14.5 0.00 0.00 0.00 62 1006.5
20260505201055 31 216 12.9 19.3 0.00 0.00 0.00 61 1006.6
20260505200036 31 213 14.5 19.3 0.00 0.00 0.00 61 1006.6
20260505195100 30 188 16.1 25.7 0.00 0.00 0.00 61 1006.6
20260505194023 30 218 14.5 25.7 0.00 0.00 0.00 63 1006.8
20260505193027 30 201 14.5 19.3 0.00 0.00 0.00 66 1006.7
20260505192031 30 162 14.5 20.9 0.00 0.00 0.00 67 1006.7
20260505191042 29 186 16.1 22.5 0.00 0.00 0.00 68 1006.9
20260505190021 29 176 16.1 20.9 0.00 0.00 0.00 68 1007.0
20260505185025 29 183 11.3 17.7 0.00 0.00 0.00 69 1007.2
20260505184030 28 185 16.1 20.9 0.00 0.00 0.00 70 1007.3
20260505183015 28 183 16.1 19.3 0.00 0.00 0.00 69 1007.3
20260505182020 28 195 16.1 20.9 0.00 0.00 0.00 70 1007.3
20260505181024 28 202 16.1 20.9 0.00 0.00 0.00 70 1007.3
20260505180021 28 173 16.1 19.3 0.00 0.00 0.00 72 1007.3
20260505175019 28 197 14.5 19.3 0.00 0.00 0.00 71 1007.4
20260505174042 27 187 16.1 24.1 0.00 0.00 0.00 73 1007.5
20260505173015 27 216 11.3 17.7 0.00 0.00 0.00 74 1007.4
20260505172025 27 182 14.5 19.3 0.00 0.00 0.00 74 1007.5
20260505171030 27 196 16.1 20.9 0.00 0.00 0.00 74 1007.6
20260505170016 27 191 12.9 19.3 0.00 0.00 0.00 74 1007.5
20260505165019 27 190 17.7 27.4 0.00 0.00 0.00 74 1007.2
20260505164023 27 194 17.7 30.6 0.00 0.00 0.00 74 1007.2
20260505163048 26 178 19.3 30.6 0.00 0.00 0.00 76 1007.1
20260505162032 26 181 19.3 29.0 0.00 0.00 0.00 77 1007.2
20260505161118 26 184 22.5 29.0 0.00 0.00 0.00 78 1007.4
20260505153015 24 194 22.5 30.6 0.00 0.00 0.00 82 1007.4
20260505152020 25 186 17.7 24.1 0.00 0.00 0.00 81 1007.4
20260505151024 25 178 16.1 29.0 0.00 0.00 0.00 81 1007.4
20260505150107 24 185 19.3 30.6 0.00 0.00 0.00 83 1007.1
20260505124019 21 192 14.5 20.9 0.00 0.00 0.00 94 1006.6
20260505123017 20 180 14.5 16.1 0.00 0.00 0.00 94 1006.6
20260505122020 20 199 12.9 20.9 0.00 0.00 0.00 95 1006.4
20260505121026 20 174 14.5 19.3 0.00 0.00 0.00 95 1006.1
20260505120029 20 177 14.5 19.3 0.00 0.00 0.00 95 1006.4
20260505115020 20 185 16.1 20.9 0.00 0.00 0.00 95 1006.1
20260505114019 20 188 14.5 19.3 0.00 0.00 0.00 95 1006.3
20260505113023 20 177 9.7 12.9 0.00 0.00 0.00 94 1006.2
20260505112027 20 176 16.1 22.5 0.00 0.00 0.00 94 1006.1
20260505111031 20 183 14.5 24.1 0.00 0.00 0.00 94 1005.9
20260505102035 21 174 14.5 19.3 0.00 0.00 0.00 92 1006.1
20260505101030 21 179 12.9 16.1 0.00 0.00 0.00 91 1006.1
20260505100024 21 175 17.7 20.9 0.00 0.00 0.00 91 1006.1
20260505095028 21 182 16.1 19.3 0.00 0.00 0.00 91 1006.4
20260505094032 21 180 17.7 25.7 0.00 0.00 0.00 91 1006.3
20260505093018 21 178 17.7 29.0 0.00 0.00 0.00 91 1006.4
20260505092022 21 169 16.1 24.1 0.00 0.00 0.00 92 1006.5
20260505091047 21 175 17.7 29.0 0.00 0.00 0.00 92 1006.5
20260505090030 21 189 16.1 20.9 0.00 0.00 0.00 92 1006.4
20260505085016 21 191 14.5 25.7 0.00 0.00 0.00 91 1006.5
20260505084020 21 189 16.1 24.1 0.00 0.00 0.00 91 1006.4
20260505083024 21 181 19.3 27.4 0.00 0.00 0.00 91 1006.4
20260505082028 21 170 20.9 29.0 0.00 0.00 0.00 91 1006.5
20260505081027 21 174 16.1 24.1 0.00 0.00 0.00 90 1006.6
20260505080018 21 174 17.7 27.4 0.00 0.00 0.00 90 1006.8
20260505075023 21 177 20.9 32.2 0.00 0.00 0.00 89 1006.9
20260505074041 21 180 17.7 24.1 0.00 0.00 0.00 89 1007.1
20260505073019 21 186 17.7 24.1 0.00 0.00 0.00 88 1007.3
20260505072017 21 168 16.1 20.9 0.00 0.00 0.00 88 1007.4
20260505071015 21 177 17.7 25.7 0.00 0.00 0.00 87 1007.5
20260505070025 21 179 17.7 20.9 0.00 0.00 0.00 87 1007.6
20260505065110 21 183 14.5 25.7 0.00 0.00 0.00 86 1007.8
20260505064015 22 168 19.3 25.7 0.00 0.00 0.00 86 1007.9
20260505063040 22 183 16.1 19.3 0.00 0.00 0.00 85 1008.0
20260505062024 22 173 12.9 19.3 0.00 0.00 0.00 84 1008.0
20260505061027 22 169 16.1 22.5 0.00 0.00 0.00 83 1007.9
20260505060032 22 167 17.7 25.7 0.00 0.00 0.00 82 1007.7
20260505055018 22 173 19.3 25.7 0.00 0.00 0.00 81 1007.8
20260505054022 22 181 19.3 32.2 0.00 0.00 0.00 80 1007.8
20260505053026 22 177 19.3 25.7 0.00 0.00 0.00 79 1007.9
20260505052030 22 169 19.3 24.1 0.00 0.00 0.00 78 1008.0
20260505051016 22 176 16.1 20.9 0.00 0.00 0.00 78 1008.2